GEFSCGP_prec_meanprecacc_066.txt.gz
Total_Precipitation_Accumulation
1.58 1.14 0.63 0.30 0.19 0.18 0.12 0.15 0.20 0.21 0.21 0.21 0.20 0.13 0.13 0.11 0.08 0.05 0.03 0.01 0.00 0.01 0.02 0.05 0.07 0.10 0.12 0.16 0.18 0.16 0.14 0.17 0.25 0.29 0.27 0.23 0.20 0.18 0.16 0.14 0.15 0.17 0.18 0.20
1.29 0.78 0.32 0.19 0.17 0.17 0.15 0.12 0.15 0.16 0.16 0.17 0.15 0.11 0.08 0.08 0.06 0.04 0.02 0.01 0.00 0.00 0.01 0.02 0.04 0.07 0.09 0.11 0.13 0.15 0.16 0.16 0.16 0.16 0.21 0.27 0.31 0.29 0.27 0.26 0.22 0.22 0.23 0.24
0.94 0.50 0.28 0.26 0.25 0.18 0.13 0.11 0.11 0.13 0.15 0.16 0.13 0.10 0.05 0.04 0.04 0.03 0.02 0.01 0.00 0.00 0.00 0.01 0.02 0.03 0.05 0.07 0.09 0.10 0.13 0.13 0.15 0.20 0.30 0.35 0.37 0.34 0.29 0.24 0.22 0.23 0.28 0.30
0.86 0.47 0.32 0.31 0.24 0.16 0.11 0.07 0.08 0.10 0.12 0.12 0.08 0.07 0.02 0.01 0.02 0.02 0.02 0.01 0.00 0.00 0.00 0.00 0.01 0.01 0.02 0.04 0.07 0.08 0.10 0.13 0.17 0.25 0.29 0.28 0.27 0.24 0.21 0.23 0.28 0.34 0.34 0.35
0.80 0.50 0.38 0.34 0.22 0.14 0.11 0.06 0.08 0.09 0.08 0.08 0.04 0.03 0.01 0.00 0.01 0.01 0.00 0.00 0.00 0.00 0.00 0.00 0.00 0.01 0.01 0.02 0.04 0.07 0.10 0.13 0.16 0.21 0.24 0.24 0.20 0.15 0.16 0.18 0.20 0.21 0.22 0.26
0.53 0.42 0.44 0.35 0.20 0.16 0.13 0.09 0.11 0.11 0.12 0.09 0.02 0.01 0.00 0.00 0.00 0.00 0.00 0.00 0.00 0.00 0.00 0.00 0.00 0.00 0.00 0.01 0.02 0.04 0.06 0.07 0.10 0.14 0.17 0.17 0.15 0.12 0.13 0.14 0.15 0.15 0.15 0.18
0.66 0.50 0.37 0.30 0.24 0.20 0.16 0.15 0.22 0.25 0.21 0.06 0.01 0.00 0.00 0.00 0.00 0.00 0.00 0.00 0.00 0.00 0.00 0.00 0.00 0.00 0.00 0.00 0.01 0.02 0.03 0.05 0.06 0.09 0.12 0.14 0.15 0.15 0.15 0.17 0.17 0.16 0.13 0.13
0.59 0.67 0.36 0.27 0.23 0.20 0.15 0.12 0.11 0.08 0.05 0.01 0.00 0.00 0.00 0.00 0.00 0.00 0.00 0.00 0.00 0.00 0.00 0.00 0.00 0.00 0.00 0.00 0.00 0.01 0.02 0.03 0.05 0.07 0.09 0.10 0.12 0.12 0.11 0.13 0.13 0.15 0.16 0.18
0.25 0.34 0.22 0.16 0.12 0.11 0.15 0.12 0.05 0.11 0.09 0.05 0.01 0.00 0.00 0.00 0.00 0.00 0.00 0.00 0.00 0.00 0.00 0.00 0.00 0.00 0.00 0.00 0.00 0.00 0.01 0.02 0.04 0.06 0.08 0.08 0.08 0.07 0.07 0.09 0.10 0.11 0.14 0.19
0.11 0.16 0.15 0.13 0.11 0.10 0.09 0.06 0.09 0.21 0.14 0.06 0.01 0.00 0.00 0.00 0.00 0.00 0.00 0.00 0.00 0.00 0.00 0.00 0.00 0.00 0.00 0.00 0.00 0.01 0.01 0.03 0.05 0.07 0.08 0.06 0.05 0.06 0.08 0.08 0.07 0.08 0.12 0.14
0.07 0.11 0.15 0.14 0.14 0.09 0.06 0.09 0.12 0.16 0.12 0.07 0.03 0.00 0.00 0.00 0.00 0.00 0.00 0.00 0.00 0.00 0.00 0.00 0.00 0.01 0.01 0.00 0.00 0.01 0.04 0.06 0.07 0.07 0.06 0.05 0.04 0.06 0.07 0.07 0.07 0.08 0.12 0.13
0.06 0.10 0.14 0.11 0.05 0.03 0.03 0.04 0.08 0.17 0.12 0.08 0.07 0.01 0.00 0.00 0.00 0.00 0.00 0.00 0.00 0.00 0.00 0.00 0.00 0.01 0.01 0.02 0.04 0.06 0.09 0.09 0.07 0.06 0.06 0.06 0.06 0.07 0.07 0.07 0.08 0.09 0.10 0.13
0.05 0.07 0.13 0.15 0.10 0.07 0.05 0.04 0.07 0.21 0.35 0.21 0.12 0.03 0.00 0.00 0.00 0.01 0.01 0.01 0.01 0.01 0.00 0.00 0.00 0.01 0.03 0.06 0.11 0.14 0.12 0.08 0.07 0.07 0.07 0.07 0.07 0.07 0.07 0.09 0.10 0.10 0.10 0.12
0.07 0.05 0.06 0.07 0.06 0.12 0.13 0.06 0.11 0.41 0.52 0.15 0.03 0.01 0.00 0.01 0.02 0.04 0.06 0.04 0.02 0.01 0.01 0.01 0.01 0.02 0.05 0.10 0.14 0.14 0.11 0.11 0.13 0.13 0.12 0.12 0.12 0.11 0.11 0.11 0.12 0.12 0.10 0.09
0.08 0.07 0.03 0.02 0.05 0.16 0.17 0.10 0.13 0.27 0.19 0.13 0.03 0.01 0.01 0.01 0.04 0.08 0.10 0.07 0.04 0.02 0.02 0.02 0.03 0.04 0.06 0.09 0.12 0.13 0.14 0.17 0.19 0.18 0.15 0.13 0.13 0.14 0.15 0.13 0.12 0.09 0.07 0.05
0.10 0.09 0.06 0.05 0.04 0.10 0.13 0.06 0.06 0.07 0.05 0.04 0.03 0.02 0.01 0.05 0.10 0.13 0.12 0.08 0.05 0.03 0.02 0.01 0.02 0.02 0.03 0.07 0.15 0.20 0.23 0.24 0.21 0.18 0.16 0.15 0.15 0.16 0.17 0.14 0.10 0.08 0.08 0.08
0.06 0.08 0.13 0.07 0.03 0.09 0.10 0.06 0.05 0.03 0.02 0.03 0.04 0.03 0.04 0.12 0.17 0.19 0.13 0.07 0.04 0.02 0.01 0.01 0.01 0.01 0.04 0.11 0.24 0.37 0.43 0.38 0.31 0.27 0.22 0.20 0.20 0.20 0.20 0.19 0.18 0.17 0.16 0.17
0.04 0.08 0.17 0.11 0.07 0.16 0.11 0.05 0.03 0.01 0.02 0.04 0.04 0.04 0.06 0.09 0.14 0.14 0.08 0.03 0.02 0.01 0.01 0.01 0.01 0.03 0.06 0.14 0.27 0.37 0.44 0.48 0.43 0.39 0.37 0.33 0.34 0.36 0.38 0.40 0.39 0.37 0.36 0.36
0.03 0.10 0.20 0.15 0.11 0.06 0.02 0.02 0.02 0.02 0.02 0.03 0.03 0.02 0.03 0.04 0.08 0.09 0.05 0.03 0.02 0.01 0.01 0.01 0.01 0.03 0.07 0.14 0.22 0.32 0.41 0.46 0.51 0.57 0.61 0.60 0.59 0.62 0.66 0.70 0.72 0.68 0.64 0.63
0.03 0.08 0.21 0.17 0.12 0.03 0.01 0.00 0.01 0.02 0.03 0.01 0.02 0.01 0.01 0.02 0.06 0.08 0.07 0.05 0.04 0.03 0.03 0.03 0.03 0.05 0.10 0.17 0.28 0.45 0.56 0.62 0.64 0.71 0.76 0.73 0.72 0.72 0.73 0.74 0.73 0.70 0.63 0.60
0.07 0.12 0.18 0.16 0.11 0.02 0.01 0.01 0.00 0.02 0.03 0.01 0.02 0.02 0.02 0.03 0.04 0.04 0.06 0.08 0.09 0.09 0.10 0.12 0.14 0.18 0.25 0.34 0.47 0.70 0.81 0.77 0.71 0.69 0.66 0.59 0.56 0.51 0.48 0.45 0.43 0.41 0.36 0.33
0.02 0.05 0.06 0.06 0.07 0.03 0.01 0.01 0.01 0.02 0.01 0.01 0.02 0.03 0.04 0.03 0.03 0.03 0.04 0.06 0.11 0.14 0.15 0.18 0.23 0.30 0.36 0.39 0.46 0.56 0.58 0.53 0.48 0.42 0.35 0.30 0.27 0.24 0.22 0.21 0.20 0.17 0.15 0.13
0.02 0.03 0.03 0.03 0.04 0.02 0.01 0.01 0.01 0.01 0.01 0.01 0.03 0.04 0.04 0.02 0.02 0.02 0.03 0.03 0.05 0.07 0.08 0.09 0.10 0.12 0.15 0.16 0.18 0.20 0.19 0.16 0.14 0.12 0.09 0.07 0.06 0.06 0.05 0.05 0.04 0.03 0.02 0.01
0.03 0.02 0.03 0.02 0.02 0.02 0.01 0.01 0.01 0.01 0.01 0.01 0.03 0.03 0.03 0.03 0.03 0.03 0.03 0.03 0.03 0.03 0.03 0.03 0.03 0.02 0.03 0.03 0.03 0.03 0.03 0.03 0.03 0.02 0.02 0.02 0.01 0.01 0.01 0.01 0.00 0.00 0.00 0.00
0.03 0.03 0.04 0.03 0.02 0.02 0.01 0.01 0.01 0.01 0.01 0.01 0.01 0.01 0.02 0.02 0.03 0.04 0.04 0.04 0.04 0.03 0.03 0.03 0.03 0.03 0.03 0.03 0.02 0.03 0.03 0.03 0.02 0.02 0.03 0.02 0.02 0.02 0.01 0.01 0.01 0.01 0.00 0.00
0.02 0.03 0.04 0.04 0.01 0.01 0.00 0.00 0.00 0.01 0.01 0.01 0.01 0.01 0.02 0.02 0.02 0.02 0.03 0.03 0.03 0.03 0.04 0.04 0.04 0.04 0.04 0.04 0.04 0.04 0.04 0.04 0.04 0.04 0.04 0.04 0.04 0.04 0.03 0.02 0.02 0.02 0.01 0.01

GEFSCGP_prec_meanprecacc_072.txt.gz
Total_Precipitation_Accumulation
1.63 1.22 0.73 0.38 0.29 0.25 0.19 0.24 0.33 0.39 0.38 0.38 0.40 0.27 0.27 0.23 0.15 0.11 0.08 0.06 0.05 0.07 0.11 0.18 0.24 0.32 0.37 0.43 0.46 0.43 0.45 0.51 0.57 0.58 0.52 0.46 0.41 0.37 0.32 0.26 0.25 0.25 0.24 0.25
1.36 0.86 0.39 0.24 0.24 0.24 0.21 0.21 0.27 0.32 0.32 0.34 0.32 0.25 0.20 0.21 0.14 0.09 0.06 0.04 0.03 0.03 0.04 0.08 0.15 0.23 0.28 0.35 0.39 0.40 0.42 0.47 0.46 0.43 0.47 0.50 0.53 0.49 0.44 0.39 0.34 0.32 0.32 0.31
1.01 0.56 0.31 0.30 0.31 0.25 0.19 0.17 0.21 0.25 0.26 0.30 0.29 0.25 0.14 0.11 0.11 0.07 0.04 0.02 0.02 0.02 0.02 0.04 0.07 0.12 0.18 0.25 0.31 0.36 0.38 0.40 0.44 0.51 0.64 0.67 0.66 0.57 0.48 0.41 0.37 0.36 0.39 0.39
0.92 0.52 0.37 0.36 0.29 0.22 0.17 0.11 0.15 0.19 0.21 0.23 0.21 0.23 0.10 0.05 0.07 0.06 0.03 0.02 0.01 0.01 0.01 0.02 0.03 0.05 0.09 0.14 0.23 0.32 0.38 0.42 0.47 0.58 0.61 0.60 0.54 0.47 0.43 0.43 0.47 0.49 0.48 0.48
0.86 0.56 0.43 0.39 0.26 0.20 0.17 0.11 0.15 0.16 0.15 0.15 0.10 0.11 0.07 0.03 0.03 0.04 0.02 0.01 0.00 0.00 0.00 0.01 0.01 0.03 0.06 0.09 0.16 0.24 0.32 0.36 0.43 0.50 0.53 0.56 0.48 0.38 0.38 0.39 0.37 0.37 0.35 0.37
0.58 0.47 0.49 0.40 0.24 0.20 0.19 0.15 0.19 0.20 0.19 0.16 0.07 0.04 0.04 0.02 0.01 0.02 0.02 0.01 0.00 0.00 0.00 0.00 0.00 0.01 0.02 0.04 0.09 0.16 0.22 0.25 0.29 0.36 0.42 0.41 0.37 0.33 0.33 0.32 0.32 0.30 0.28 0.29
0.71 0.55 0.42 0.35 0.29 0.24 0.20 0.21 0.32 0.38 0.31 0.11 0.03 0.02 0.02 0.01 0.01 0.01 0.02 0.01 0.01 0.00 0.00 0.00 0.00 0.00 0.01 0.02 0.03 0.07 0.12 0.15 0.18 0.22 0.27 0.30 0.33 0.33 0.33 0.34 0.33 0.30 0.25 0.22
0.64 0.75 0.43 0.33 0.27 0.23 0.18 0.17 0.17 0.14 0.09 0.04 0.02 0.02 0.01 0.01 0.00 0.00 0.01 0.01 0.01 0.00 0.00 0.00 0.00 0.00 0.00 0.01 0.02 0.04 0.07 0.10 0.14 0.17 0.21 0.23 0.26 0.26 0.25 0.27 0.26 0.26 0.25 0.25
0.29 0.41 0.28 0.21 0.15 0.14 0.18 0.14 0.07 0.13 0.10 0.06 0.02 0.01 0.00 0.00 0.00 0.00 0.00 0.00 0.00 0.00 0.00 0.00 0.00 0.00 0.00 0.01 0.01 0.01 0.03 0.05 0.09 0.13 0.16 0.17 0.18 0.17 0.17 0.17 0.17 0.17 0.19 0.23
0.13 0.21 0.20 0.16 0.14 0.12 0.10 0.07 0.10 0.22 0.15 0.07 0.02 0.00 0.00 0.00 0.00 0.00 0.00 0.00 0.00 0.00 0.00 0.00 0.00 0.00 0.00 0.00 0.01 0.01 0.02 0.03 0.06 0.09 0.12 0.11 0.10 0.11 0.13 0.12 0.11 0.11 0.15 0.17
0.08 0.13 0.18 0.16 0.17 0.11 0.07 0.09 0.12 0.17 0.12 0.07 0.03 0.01 0.00 0.00 0.00 0.00 0.00 0.00 0.00 0.00 0.00 0.00 0.00 0.01 0.01 0.00 0.01 0.02 0.04 0.06 0.07 0.08 0.07 0.06 0.06 0.08 0.10 0.09 0.09 0.11 0.14 0.14
0.06 0.11 0.16 0.13 0.06 0.03 0.04 0.04 0.08 0.17 0.12 0.09 0.07 0.02 0.00 0.00 0.00 0.00 0.00 0.00 0.00 0.00 0.00 0.00 0.00 0.01 0.01 0.02 0.04 0.07 0.09 0.09 0.08 0.07 0.06 0.06 0.06 0.08 0.08 0.09 0.09 0.10 0.12 0.14
0.05 0.08 0.14 0.15 0.11 0.07 0.06 0.04 0.07 0.21 0.35 0.21 0.12 0.03 0.00 0.00 0.00 0.01 0.01 0.01 0.01 0.01 0.00 0.00 0.00 0.01 0.03 0.06 0.11 0.14 0.12 0.08 0.07 0.07 0.07 0.07 0.07 0.07 0.08 0.09 0.10 0.11 0.11 0.12
0.08 0.05 0.06 0.07 0.06 0.12 0.14 0.06 0.11 0.42 0.52 0.15 0.03 0.01 0.00 0.01 0.02 0.04 0.06 0.04 0.02 0.01 0.01 0.01 0.01 0.02 0.05 0.10 0.14 0.14 0.11 0.11 0.13 0.14 0.12 0.13 0.12 0.12 0.11 0.12 0.12 0.12 0.10 0.09
0.09 0.07 0.03 0.02 0.05 0.16 0.17 0.10 0.14 0.28 0.19 0.13 0.03 0.01 0.01 0.01 0.04 0.08 0.10 0.07 0.04 0.02 0.02 0.02 0.03 0.04 0.06 0.09 0.12 0.13 0.14 0.17 0.19 0.18 0.15 0.13 0.13 0.14 0.15 0.14 0.12 0.10 0.07 0.05
0.10 0.09 0.06 0.05 0.04 0.10 0.13 0.06 0.06 0.07 0.05 0.04 0.03 0.02 0.01 0.05 0.10 0.13 0.12 0.08 0.05 0.03 0.02 0.01 0.02 0.02 0.03 0.07 0.15 0.20 0.23 0.24 0.21 0.18 0.16 0.15 0.16 0.16 0.17 0.14 0.10 0.09 0.08 0.08
0.06 0.08 0.13 0.08 0.03 0.09 0.10 0.06 0.05 0.03 0.02 0.03 0.04 0.03 0.04 0.12 0.17 0.19 0.13 0.07 0.04 0.02 0.01 0.01 0.01 0.01 0.04 0.11 0.24 0.37 0.43 0.38 0.31 0.27 0.22 0.20 0.20 0.20 0.20 0.19 0.18 0.17 0.17 0.17
0.04 0.08 0.17 0.11 0.07 0.16 0.11 0.05 0.03 0.01 0.02 0.04 0.04 0.04 0.06 0.09 0.14 0.14 0.08 0.03 0.02 0.01 0.01 0.01 0.01 0.03 0.06 0.14 0.27 0.37 0.44 0.48 0.43 0.39 0.37 0.33 0.34 0.36 0.38 0.40 0.39 0.37 0.36 0.36
0.03 0.10 0.20 0.15 0.11 0.06 0.02 0.02 0.02 0.02 0.02 0.03 0.04 0.02 0.03 0.04 0.08 0.09 0.05 0.03 0.02 0.01 0.01 0.01 0.01 0.03 0.07 0.14 0.22 0.32 0.41 0.46 0.51 0.57 0.61 0.60 0.59 0.62 0.66 0.70 0.72 0.68 0.64 0.63
0.03 0.08 0.21 0.17 0.12 0.03 0.01 0.00 0.01 0.02 0.04 0.01 0.02 0.02 0.01 0.02 0.06 0.08 0.07 0.05 0.04 0.03 0.03 0.03 0.03 0.05 0.10 0.17 0.28 0.45 0.56 0.62 0.64 0.71 0.76 0.73 0.72 0.72 0.73 0.74 0.73 0.70 0.63 0.60
0.07 0.12 0.18 0.16 0.12 0.02 0.01 0.01 0.00 0.03 0.04 0.01 0.02 0.02 0.03 0.04 0.04 0.04 0.06 0.08 0.09 0.09 0.10 0.12 0.14 0.18 0.25 0.34 0.47 0.70 0.81 0.77 0.71 0.69 0.66 0.59 0.56 0.51 0.48 0.45 0.43 0.41 0.37 0.33
0.02 0.05 0.06 0.06 0.07 0.03 0.01 0.01 0.01 0.02 0.01 0.01 0.02 0.03 0.04 0.03 0.03 0.03 0.04 0.06 0.11 0.14 0.15 0.18 0.23 0.30 0.36 0.39 0.46 0.56 0.58 0.53 0.48 0.42 0.36 0.30 0.27 0.24 0.22 0.21 0.20 0.17 0.15 0.13
0.02 0.03 0.03 0.03 0.04 0.02 0.01 0.01 0.01 0.01 0.01 0.01 0.03 0.04 0.04 0.03 0.02 0.02 0.03 0.04 0.05 0.07 0.08 0.09 0.10 0.12 0.15 0.16 0.18 0.20 0.19 0.16 0.14 0.12 0.09 0.07 0.07 0.07 0.06 0.06 0.05 0.04 0.03 0.02
0.03 0.02 0.03 0.02 0.02 0.02 0.01 0.01 0.01 0.01 0.01 0.01 0.03 0.03 0.03 0.04 0.03 0.03 0.03 0.03 0.04 0.04 0.04 0.04 0.04 0.03 0.03 0.03 0.04 0.03 0.03 0.03 0.03 0.03 0.03 0.02 0.02 0.02 0.02 0.02 0.01 0.01 0.01 0.01
0.03 0.03 0.04 0.03 0.02 0.02 0.01 0.01 0.01 0.01 0.01 0.01 0.01 0.01 0.02 0.02 0.03 0.04 0.04 0.04 0.04 0.04 0.04 0.04 0.04 0.03 0.03 0.03 0.03 0.03 0.03 0.03 0.03 0.03 0.03 0.04 0.04 0.03 0.03 0.03 0.03 0.03 0.02 0.02
0.02 0.03 0.04 0.04 0.01 0.01 0.00 0.00 0.00 0.01 0.01 0.01 0.01 0.01 0.02 0.02 0.02 0.03 0.03 0.03 0.03 0.04 0.04 0.05 0.05 0.05 0.05 0.04 0.04 0.04 0.05 0.05 0.05 0.05 0.06 0.06 0.06 0.06 0.06 0.06 0.05 0.06 0.05 0.04

GEFSCGP_prec_meanprecacc_078.txt.gz
Total_Precipitation_Accumulation
1.67 1.26 0.76 0.41 0.32 0.30 0.23 0.29 0.43 0.49 0.49 0.48 0.50 0.37 0.35 0.29 0.22 0.20 0.18 0.18 0.20 0.25 0.33 0.44 0.58 0.69 0.76 0.77 0.78 0.75 0.74 0.79 0.82 0.79 0.72 0.64 0.55 0.49 0.42 0.35 0.35 0.33 0.31 0.32
1.40 0.89 0.40 0.26 0.27 0.27 0.25 0.27 0.36 0.42 0.42 0.45 0.42 0.34 0.29 0.28 0.21 0.16 0.14 0.13 0.14 0.17 0.22 0.30 0.41 0.56 0.64 0.69 0.70 0.74 0.79 0.80 0.76 0.74 0.76 0.76 0.77 0.71 0.64 0.57 0.51 0.48 0.46 0.44
1.05 0.59 0.34 0.34 0.34 0.28 0.22 0.22 0.27 0.31 0.35 0.41 0.39 0.36 0.24 0.19 0.16 0.12 0.10 0.09 0.10 0.12 0.14 0.21 0.28 0.39 0.48 0.58 0.67 0.70 0.73 0.78 0.78 0.87 1.06 1.06 0.98 0.87 0.75 0.66 0.63 0.62 0.62 0.60
0.96 0.54 0.40 0.40 0.33 0.26 0.22 0.15 0.20 0.24 0.28 0.34 0.30 0.35 0.19 0.12 0.12 0.10 0.07 0.06 0.06 0.08 0.10 0.13 0.19 0.26 0.31 0.40 0.54 0.69 0.77 0.84 0.91 1.03 1.06 1.02 0.90 0.82 0.77 0.74 0.76 0.77 0.73 0.72
0.92 0.61 0.47 0.43 0.30 0.24 0.23 0.16 0.21 0.22 0.21 0.22 0.16 0.17 0.14 0.09 0.09 0.08 0.05 0.04 0.04 0.05 0.07 0.08 0.11 0.18 0.22 0.28 0.38 0.52 0.70 0.78 0.91 1.06 1.06 1.04 0.91 0.77 0.78 0.78 0.71 0.68 0.64 0.65
0.62 0.51 0.54 0.44 0.28 0.27 0.26 0.23 0.26 0.27 0.26 0.22 0.11 0.09 0.11 0.07 0.06 0.06 0.05 0.04 0.03 0.03 0.04 0.05 0.05 0.08 0.13 0.18 0.25 0.34 0.45 0.52 0.61 0.75 0.89 0.93 0.90 0.84 0.79 0.75 0.70 0.66 0.61 0.59
0.75 0.59 0.48 0.42 0.37 0.31 0.27 0.31 0.40 0.45 0.38 0.16 0.06 0.06 0.09 0.06 0.03 0.04 0.04 0.03 0.03 0.02 0.02 0.02 0.02 0.03 0.06 0.09 0.13 0.18 0.23 0.29 0.36 0.44 0.56 0.65 0.72 0.74 0.72 0.74 0.70 0.62 0.57 0.53
0.70 0.82 0.49 0.38 0.33 0.28 0.21 0.22 0.20 0.17 0.12 0.08 0.05 0.06 0.06 0.04 0.03 0.03 0.03 0.03 0.02 0.02 0.01 0.01 0.01 0.01 0.03 0.05 0.07 0.10 0.13 0.17 0.21 0.27 0.34 0.40 0.46 0.49 0.50 0.52 0.52 0.51 0.47 0.48
0.34 0.48 0.33 0.25 0.18 0.16 0.20 0.17 0.10 0.16 0.11 0.08 0.05 0.04 0.03 0.03 0.03 0.03 0.04 0.03 0.02 0.02 0.02 0.01 0.01 0.01 0.01 0.02 0.03 0.04 0.06 0.09 0.13 0.18 0.23 0.25 0.28 0.32 0.34 0.35 0.36 0.37 0.38 0.41
0.16 0.26 0.25 0.19 0.16 0.14 0.12 0.08 0.12 0.24 0.17 0.08 0.04 0.02 0.02 0.03 0.03 0.03 0.03 0.03 0.02 0.02 0.02 0.02 0.01 0.01 0.01 0.01 0.01 0.02 0.03 0.05 0.07 0.12 0.15 0.15 0.15 0.19 0.24 0.26 0.24 0.25 0.30 0.32
0.09 0.15 0.21 0.18 0.18 0.13 0.09 0.10 0.13 0.19 0.13 0.07 0.04 0.02 0.01 0.02 0.02 0.02 0.02 0.02 0.01 0.02 0.02 0.01 0.01 0.01 0.01 0.01 0.01 0.02 0.05 0.07 0.08 0.09 0.08 0.07 0.08 0.10 0.13 0.15 0.16 0.18 0.22 0.22
0.07 0.12 0.17 0.14 0.07 0.04 0.04 0.06 0.10 0.19 0.13 0.09 0.07 0.03 0.01 0.01 0.01 0.01 0.01 0.02 0.01 0.01 0.01 0.00 0.00 0.01 0.01 0.02 0.04 0.07 0.09 0.09 0.08 0.07 0.06 0.06 0.07 0.08 0.09 0.10 0.12 0.13 0.14 0.17
0.06 0.08 0.15 0.16 0.11 0.07 0.06 0.05 0.08 0.21 0.35 0.21 0.12 0.04 0.01 0.01 0.01 0.01 0.01 0.02 0.02 0.01 0.00 0.00 0.00 0.01 0.03 0.06 0.11 0.14 0.12 0.08 0.07 0.07 0.07 0.07 0.07 0.07 0.08 0.10 0.11 0.12 0.12 0.13
0.08 0.05 0.06 0.08 0.06 0.13 0.15 0.07 0.11 0.42 0.52 0.16 0.03 0.03 0.01 0.01 0.02 0.04 0.06 0.04 0.03 0.02 0.01 0.01 0.01 0.02 0.05 0.10 0.14 0.14 0.11 0.11 0.13 0.14 0.13 0.13 0.12 0.12 0.12 0.12 0.13 0.13 0.11 0.10
0.09 0.07 0.03 0.03 0.06 0.17 0.18 0.10 0.14 0.28 0.19 0.13 0.03 0.01 0.01 0.01 0.04 0.08 0.10 0.07 0.04 0.02 0.02 0.02 0.03 0.04 0.06 0.09 0.12 0.13 0.14 0.17 0.19 0.18 0.15 0.13 0.13 0.14 0.15 0.14 0.12 0.10 0.08 0.06
0.10 0.09 0.06 0.05 0.04 0.10 0.13 0.06 0.06 0.07 0.05 0.04 0.03 0.02 0.01 0.05 0.10 0.13 0.12 0.08 0.05 0.03 0.02 0.01 0.02 0.02 0.03 0.07 0.15 0.20 0.23 0.24 0.21 0.18 0.16 0.15 0.16 0.16 0.17 0.14 0.10 0.09 0.08 0.08
0.06 0.08 0.13 0.08 0.03 0.09 0.10 0.06 0.05 0.03 0.02 0.03 0.04 0.03 0.04 0.12 0.17 0.19 0.13 0.07 0.04 0.02 0.01 0.01 0.01 0.01 0.04 0.11 0.24 0.37 0.43 0.38 0.31 0.27 0.22 0.20 0.20 0.20 0.20 0.19 0.18 0.17 0.17 0.17
0.04 0.08 0.17 0.11 0.07 0.16 0.11 0.05 0.03 0.01 0.02 0.04 0.04 0.04 0.06 0.09 0.14 0.14 0.08 0.03 0.02 0.01 0.01 0.01 0.01 0.03 0.06 0.14 0.27 0.37 0.44 0.48 0.43 0.39 0.37 0.33 0.34 0.36 0.38 0.40 0.39 0.37 0.36 0.36
0.03 0.10 0.20 0.15 0.11 0.06 0.03 0.02 0.02 0.02 0.02 0.03 0.04 0.02 0.03 0.04 0.08 0.09 0.05 0.03 0.02 0.01 0.01 0.01 0.01 0.03 0.07 0.14 0.22 0.32 0.41 0.46 0.51 0.57 0.61 0.60 0.59 0.62 0.66 0.71 0.72 0.68 0.64 0.63
0.03 0.08 0.21 0.17 0.12 0.03 0.01 0.00 0.01 0.02 0.04 0.01 0.02 0.02 0.01 0.02 0.06 0.08 0.07 0.05 0.04 0.03 0.03 0.03 0.03 0.05 0.10 0.17 0.28 0.45 0.56 0.62 0.64 0.71 0.76 0.73 0.72 0.72 0.73 0.74 0.74 0.70 0.63 0.60
0.07 0.12 0.18 0.16 0.12 0.02 0.01 0.01 0.00 0.03 0.04 0.01 0.02 0.02 0.03 0.04 0.05 0.04 0.06 0.08 0.09 0.09 0.10 0.12 0.14 0.18 0.25 0.34 0.48 0.70 0.82 0.77 0.71 0.70 0.66 0.59 0.56 0.51 0.48 0.45 0.43 0.41 0.37 0.33
0.02 0.05 0.06 0.06 0.07 0.03 0.01 0.01 0.01 0.02 0.01 0.01 0.02 0.03 0.04 0.03 0.03 0.03 0.04 0.06 0.11 0.14 0.15 0.18 0.24 0.30 0.36 0.40 0.46 0.56 0.59 0.54 0.48 0.43 0.36 0.30 0.27 0.24 0.22 0.21 0.20 0.18 0.16 0.14
0.02 0.03 0.03 0.03 0.04 0.02 0.01 0.01 0.01 0.01 0.01 0.01 0.03 0.04 0.04 0.03 0.02 0.03 0.03 0.04 0.05 0.08 0.08 0.09 0.11 0.12 0.15 0.17 0.19 0.20 0.19 0.16 0.14 0.12 0.09 0.07 0.07 0.07 0.06 0.06 0.05 0.04 0.03 0.03
0.03 0.02 0.03 0.02 0.02 0.02 0.01 0.01 0.01 0.01 0.01 0.01 0.03 0.03 0.03 0.04 0.03 0.03 0.03 0.03 0.04 0.04 0.04 0.04 0.04 0.04 0.04 0.04 0.05 0.04 0.04 0.03 0.03 0.03 0.03 0.02 0.02 0.02 0.02 0.02 0.03 0.03 0.03 0.02
0.03 0.03 0.04 0.03 0.02 0.02 0.01 0.01 0.01 0.01 0.01 0.01 0.01 0.01 0.02 0.02 0.03 0.04 0.04 0.04 0.04 0.04 0.04 0.04 0.04 0.04 0.04 0.04 0.04 0.04 0.04 0.04 0.03 0.04 0.04 0.04 0.04 0.04 0.04 0.04 0.05 0.06 0.05 0.06
0.02 0.03 0.04 0.04 0.01 0.01 0.00 0.00 0.00 0.01 0.01 0.01 0.01 0.01 0.02 0.02 0.02 0.03 0.03 0.03 0.03 0.04 0.04 0.05 0.05 0.05 0.05 0.05 0.06 0.06 0.06 0.06 0.07 0.06 0.07 0.07 0.08 0.08 0.09 0.09 0.09 0.10 0.09 0.10

GEFSCGP_prec_meanprecacc_084.txt.gz
Total_Precipitation_Accumulation
1.70 1.31 0.81 0.44 0.35 0.33 0.26 0.34 0.47 0.53 0.52 0.53 0.57 0.44 0.40 0.34 0.27 0.28 0.27 0.30 0.37 0.47 0.55 0.65 0.80 0.93 1.04 1.03 1.07 1.14 1.16 1.23 1.25 1.17 1.00 0.85 0.72 0.65 0.57 0.47 0.45 0.41 0.36 0.36
1.45 0.93 0.43 0.29 0.31 0.30 0.28 0.30 0.40 0.45 0.45 0.51 0.51 0.41 0.34 0.34 0.28 0.23 0.23 0.24 0.31 0.38 0.44 0.52 0.65 0.77 0.92 1.02 1.04 1.12 1.18 1.21 1.19 1.15 1.13 1.03 1.01 0.92 0.81 0.72 0.64 0.59 0.56 0.52
1.11 0.62 0.35 0.37 0.39 0.32 0.25 0.26 0.32 0.37 0.41 0.49 0.49 0.45 0.33 0.28 0.25 0.19 0.19 0.21 0.25 0.30 0.34 0.42 0.50 0.58 0.69 0.86 1.03 1.08 1.12 1.18 1.19 1.31 1.54 1.43 1.26 1.12 0.98 0.85 0.79 0.76 0.76 0.74
0.99 0.56 0.42 0.43 0.37 0.30 0.27 0.20 0.25 0.30 0.39 0.46 0.44 0.52 0.32 0.23 0.22 0.19 0.16 0.16 0.19 0.23 0.27 0.32 0.40 0.46 0.52 0.63 0.85 1.09 1.15 1.25 1.33 1.43 1.53 1.46 1.21 1.04 0.98 0.95 0.95 0.94 0.89 0.87
0.96 0.64 0.50 0.47 0.35 0.30 0.29 0.20 0.25 0.29 0.33 0.36 0.29 0.34 0.29 0.20 0.20 0.18 0.15 0.13 0.15 0.17 0.20 0.25 0.32 0.38 0.43 0.51 0.65 0.86 1.05 1.15 1.33 1.43 1.47 1.47 1.25 1.03 1.02 1.00 0.92 0.89 0.85 0.82
0.66 0.54 0.56 0.47 0.32 0.30 0.30 0.28 0.32 0.35 0.38 0.35 0.21 0.24 0.27 0.21 0.16 0.15 0.13 0.12 0.13 0.14 0.14 0.18 0.21 0.24 0.31 0.38 0.45 0.59 0.73 0.79 0.92 1.04 1.20 1.26 1.22 1.11 1.04 0.97 0.89 0.84 0.80 0.78
0.80 0.63 0.52 0.45 0.40 0.34 0.32 0.41 0.54 0.61 0.51 0.29 0.15 0.17 0.23 0.16 0.12 0.14 0.15 0.13 0.12 0.11 0.12 0.12 0.13 0.14 0.19 0.24 0.30 0.36 0.45 0.50 0.60 0.71 0.83 0.95 1.02 1.02 0.97 0.96 0.88 0.79 0.72 0.67
0.76 0.88 0.52 0.41 0.37 0.33 0.26 0.30 0.35 0.34 0.22 0.16 0.11 0.14 0.18 0.13 0.12 0.13 0.14 0.12 0.10 0.09 0.09 0.10 0.11 0.11 0.12 0.17 0.21 0.24 0.30 0.36 0.39 0.48 0.57 0.65 0.69 0.71 0.70 0.71 0.68 0.66 0.60 0.60
0.38 0.53 0.35 0.26 0.20 0.20 0.25 0.21 0.15 0.25 0.18 0.12 0.12 0.12 0.14 0.13 0.12 0.12 0.13 0.11 0.09 0.07 0.09 0.10 0.09 0.08 0.07 0.10 0.12 0.14 0.18 0.21 0.24 0.30 0.38 0.41 0.43 0.47 0.50 0.50 0.48 0.49 0.50 0.52
0.18 0.31 0.28 0.21 0.19 0.16 0.14 0.10 0.15 0.30 0.23 0.13 0.08 0.09 0.15 0.14 0.12 0.11 0.11 0.10 0.08 0.07 0.07 0.07 0.06 0.06 0.05 0.06 0.06 0.07 0.08 0.11 0.13 0.17 0.20 0.22 0.25 0.30 0.35 0.38 0.35 0.35 0.41 0.45
0.10 0.18 0.23 0.20 0.20 0.14 0.10 0.12 0.16 0.22 0.16 0.11 0.07 0.08 0.09 0.10 0.10 0.10 0.10 0.10 0.08 0.07 0.06 0.05 0.04 0.04 0.03 0.03 0.03 0.04 0.07 0.10 0.12 0.12 0.12 0.11 0.13 0.17 0.21 0.23 0.24 0.27 0.30 0.32
0.08 0.13 0.19 0.15 0.08 0.05 0.05 0.08 0.14 0.22 0.14 0.10 0.09 0.08 0.07 0.07 0.07 0.07 0.08 0.08 0.06 0.05 0.04 0.03 0.03 0.02 0.02 0.03 0.05 0.07 0.10 0.10 0.09 0.08 0.08 0.08 0.09 0.11 0.13 0.14 0.16 0.18 0.20 0.24
0.07 0.10 0.18 0.19 0.12 0.08 0.08 0.07 0.10 0.22 0.36 0.22 0.14 0.09 0.08 0.07 0.07 0.07 0.08 0.07 0.04 0.03 0.02 0.01 0.01 0.01 0.03 0.07 0.11 0.14 0.12 0.09 0.07 0.07 0.07 0.07 0.08 0.08 0.09 0.11 0.13 0.14 0.14 0.16
0.10 0.06 0.08 0.11 0.08 0.14 0.16 0.07 0.11 0.42 0.53 0.16 0.04 0.06 0.06 0.05 0.06 0.09 0.11 0.08 0.04 0.03 0.02 0.01 0.01 0.02 0.05 0.10 0.14 0.14 0.11 0.11 0.13 0.14 0.13 0.13 0.12 0.12 0.12 0.12 0.13 0.14 0.12 0.12
0.10 0.07 0.03 0.03 0.06 0.18 0.18 0.11 0.14 0.28 0.19 0.14 0.04 0.02 0.03 0.03 0.06 0.10 0.11 0.08 0.04 0.03 0.02 0.02 0.03 0.04 0.06 0.09 0.12 0.13 0.14 0.17 0.19 0.18 0.15 0.13 0.13 0.14 0.15 0.14 0.13 0.11 0.09 0.07
0.10 0.09 0.06 0.05 0.05 0.10 0.13 0.07 0.06 0.08 0.05 0.05 0.03 0.02 0.01 0.05 0.11 0.13 0.12 0.08 0.05 0.03 0.02 0.01 0.02 0.02 0.03 0.07 0.15 0.20 0.23 0.24 0.21 0.18 0.16 0.15 0.16 0.16 0.17 0.14 0.11 0.09 0.09 0.09
0.06 0.08 0.13 0.08 0.03 0.09 0.10 0.06 0.05 0.03 0.02 0.03 0.04 0.03 0.05 0.12 0.17 0.19 0.13 0.07 0.04 0.02 0.01 0.01 0.01 0.01 0.04 0.11 0.24 0.37 0.43 0.38 0.31 0.27 0.22 0.20 0.20 0.20 0.20 0.19 0.18 0.17 0.17 0.17
0.04 0.08 0.17 0.11 0.07 0.17 0.11 0.05 0.03 0.01 0.02 0.04 0.04 0.04 0.06 0.09 0.14 0.14 0.08 0.03 0.02 0.01 0.01 0.01 0.01 0.03 0.06 0.14 0.27 0.37 0.44 0.48 0.43 0.39 0.37 0.33 0.34 0.36 0.38 0.40 0.39 0.37 0.37 0.36
0.03 0.10 0.20 0.15 0.11 0.06 0.03 0.02 0.02 0.02 0.02 0.03 0.04 0.02 0.03 0.04 0.08 0.09 0.05 0.03 0.02 0.01 0.01 0.01 0.01 0.03 0.07 0.14 0.22 0.32 0.41 0.47 0.51 0.57 0.61 0.60 0.59 0.62 0.66 0.71 0.72 0.68 0.65 0.63
0.03 0.08 0.21 0.17 0.12 0.03 0.01 0.00 0.01 0.02 0.04 0.01 0.02 0.02 0.01 0.02 0.06 0.08 0.07 0.05 0.04 0.03 0.03 0.03 0.03 0.05 0.10 0.17 0.28 0.45 0.56 0.62 0.64 0.71 0.76 0.73 0.72 0.73 0.73 0.74 0.74 0.70 0.64 0.61
0.07 0.12 0.18 0.16 0.12 0.02 0.01 0.01 0.00 0.03 0.04 0.01 0.02 0.02 0.03 0.04 0.05 0.04 0.06 0.08 0.09 0.09 0.10 0.12 0.14 0.18 0.25 0.34 0.48 0.70 0.82 0.77 0.71 0.70 0.66 0.60 0.56 0.51 0.48 0.46 0.43 0.41 0.37 0.33
0.02 0.05 0.06 0.06 0.07 0.03 0.01 0.01 0.01 0.02 0.01 0.01 0.02 0.03 0.04 0.03 0.03 0.03 0.04 0.06 0.11 0.14 0.15 0.18 0.24 0.30 0.36 0.40 0.46 0.56 0.59 0.54 0.48 0.43 0.36 0.30 0.28 0.25 0.23 0.21 0.20 0.18 0.16 0.14
0.02 0.03 0.03 0.03 0.04 0.02 0.01 0.01 0.01 0.01 0.01 0.01 0.03 0.04 0.04 0.03 0.02 0.03 0.03 0.04 0.05 0.08 0.08 0.09 0.11 0.12 0.15 0.17 0.19 0.20 0.19 0.16 0.14 0.12 0.10 0.08 0.08 0.08 0.07 0.07 0.06 0.05 0.04 0.03
0.03 0.02 0.03 0.02 0.02 0.02 0.01 0.01 0.01 0.01 0.01 0.01 0.03 0.03 0.03 0.04 0.03 0.03 0.03 0.03 0.04 0.04 0.04 0.04 0.04 0.04 0.04 0.04 0.05 0.04 0.04 0.04 0.03 0.03 0.03 0.03 0.03 0.03 0.04 0.04 0.04 0.04 0.03 0.03
0.03 0.03 0.04 0.03 0.02 0.02 0.01 0.01 0.01 0.01 0.01 0.01 0.01 0.01 0.02 0.02 0.03 0.04 0.04 0.04 0.04 0.04 0.04 0.04 0.04 0.04 0.04 0.04 0.04 0.04 0.04 0.04 0.04 0.04 0.05 0.05 0.05 0.05 0.05 0.06 0.07 0.07 0.07 0.07
0.02 0.03 0.04 0.04 0.01 0.01 0.00 0.00 0.00 0.01 0.01 0.01 0.01 0.01 0.02 0.02 0.02 0.03 0.03 0.03 0.03 0.04 0.04 0.05 0.05 0.05 0.05 0.05 0.06 0.06 0.06 0.07 0.07 0.07 0.07 0.08 0.09 0.10 0.10 0.11 0.11 0.13 0.13 0.13

GEFSCGP_prec_meanprecacc_090.txt.gz
Total_Precipitation_Accumulation
1.72 1.32 0.82 0.44 0.36 0.33 0.27 0.35 0.49 0.54 0.54 0.55 0.58 0.46 0.42 0.36 0.32 0.32 0.31 0.33 0.42 0.54 0.65 0.78 0.93 1.09 1.21 1.18 1.21 1.29 1.34 1.41 1.48 1.47 1.35 1.23 1.11 1.02 0.91 0.76 0.69 0.58 0.49 0.45
1.46 0.94 0.43 0.29 0.31 0.31 0.29 0.31 0.41 0.47 0.47 0.54 0.54 0.46 0.40 0.40 0.35 0.30 0.28 0.29 0.38 0.48 0.57 0.66 0.80 0.95 1.10 1.19 1.19 1.28 1.35 1.39 1.40 1.41 1.44 1.39 1.41 1.31 1.18 1.03 0.92 0.81 0.71 0.65
1.13 0.63 0.36 0.38 0.41 0.34 0.27 0.28 0.34 0.39 0.44 0.53 0.54 0.51 0.38 0.34 0.33 0.27 0.24 0.26 0.32 0.41 0.47 0.57 0.68 0.76 0.86 1.04 1.20 1.25 1.31 1.36 1.40 1.58 1.87 1.81 1.67 1.54 1.39 1.23 1.11 1.02 0.96 0.90
1.03 0.58 0.43 0.44 0.38 0.32 0.29 0.21 0.27 0.35 0.47 0.54 0.54 0.66 0.41 0.36 0.35 0.27 0.23 0.25 0.31 0.36 0.41 0.49 0.60 0.65 0.70 0.82 1.03 1.28 1.36 1.45 1.57 1.76 1.91 1.91 1.65 1.43 1.32 1.28 1.28 1.23 1.11 1.06
0.98 0.66 0.52 0.49 0.37 0.32 0.31 0.22 0.28 0.34 0.41 0.48 0.40 0.48 0.43 0.35 0.35 0.32 0.27 0.27 0.30 0.33 0.38 0.43 0.52 0.58 0.61 0.69 0.83 1.08 1.30 1.39 1.58 1.73 1.80 1.88 1.68 1.40 1.33 1.31 1.25 1.21 1.12 1.03
0.67 0.56 0.59 0.50 0.35 0.34 0.34 0.31 0.36 0.42 0.46 0.46 0.31 0.36 0.42 0.34 0.33 0.34 0.31 0.32 0.34 0.33 0.34 0.36 0.39 0.43 0.50 0.57 0.65 0.80 0.98 1.07 1.22 1.39 1.55 1.67 1.66 1.52 1.38 1.27 1.18 1.11 1.06 1.01
0.82 0.66 0.53 0.46 0.43 0.38 0.37 0.46 0.63 0.71 0.61 0.40 0.24 0.26 0.37 0.30 0.27 0.29 0.31 0.32 0.30 0.29 0.29 0.33 0.36 0.36 0.40 0.44 0.49 0.59 0.69 0.77 0.88 0.99 1.15 1.31 1.42 1.44 1.35 1.25 1.14 1.03 0.92 0.86
0.79 0.90 0.53 0.42 0.40 0.37 0.30 0.36 0.46 0.46 0.30 0.23 0.16 0.22 0.32 0.29 0.29 0.29 0.30 0.27 0.26 0.26 0.28 0.35 0.38 0.36 0.35 0.37 0.39 0.43 0.52 0.62 0.66 0.74 0.87 0.99 1.04 1.06 1.03 1.01 0.94 0.89 0.81 0.77
0.41 0.55 0.37 0.27 0.21 0.22 0.28 0.25 0.20 0.35 0.25 0.17 0.17 0.20 0.27 0.29 0.29 0.29 0.30 0.27 0.24 0.22 0.27 0.33 0.33 0.31 0.27 0.27 0.30 0.32 0.37 0.44 0.48 0.55 0.64 0.69 0.75 0.76 0.78 0.77 0.71 0.67 0.67 0.67
0.20 0.33 0.29 0.22 0.19 0.17 0.16 0.13 0.18 0.38 0.33 0.20 0.14 0.15 0.27 0.28 0.27 0.27 0.26 0.24 0.20 0.21 0.24 0.26 0.24 0.21 0.18 0.19 0.21 0.23 0.25 0.29 0.31 0.33 0.36 0.39 0.43 0.51 0.59 0.62 0.57 0.52 0.54 0.55
0.11 0.20 0.24 0.20 0.21 0.15 0.11 0.13 0.18 0.26 0.22 0.17 0.10 0.15 0.19 0.21 0.22 0.21 0.20 0.20 0.19 0.20 0.17 0.16 0.14 0.14 0.14 0.14 0.13 0.14 0.17 0.21 0.22 0.20 0.20 0.20 0.23 0.29 0.38 0.44 0.46 0.44 0.44 0.43
0.08 0.14 0.19 0.16 0.08 0.05 0.06 0.09 0.16 0.26 0.18 0.13 0.10 0.14 0.14 0.14 0.14 0.14 0.14 0.15 0.15 0.15 0.12 0.12 0.13 0.13 0.12 0.12 0.12 0.13 0.15 0.16 0.13 0.12 0.12 0.12 0.14 0.18 0.22 0.27 0.30 0.34 0.38 0.39
0.07 0.11 0.19 0.20 0.13 0.08 0.09 0.09 0.11 0.24 0.38 0.23 0.15 0.15 0.15 0.14 0.13 0.12 0.13 0.14 0.13 0.10 0.08 0.08 0.08 0.08 0.08 0.11 0.15 0.17 0.14 0.11 0.09 0.09 0.08 0.09 0.10 0.10 0.12 0.16 0.19 0.21 0.25 0.29
0.12 0.08 0.10 0.12 0.08 0.14 0.17 0.08 0.12 0.43 0.53 0.17 0.06 0.10 0.11 0.10 0.11 0.14 0.16 0.14 0.10 0.09 0.06 0.04 0.03 0.03 0.05 0.11 0.14 0.15 0.12 0.11 0.14 0.14 0.13 0.14 0.13 0.12 0.12 0.13 0.15 0.16 0.16 0.17
0.10 0.08 0.04 0.04 0.07 0.18 0.19 0.11 0.14 0.28 0.19 0.14 0.05 0.04 0.06 0.06 0.09 0.13 0.14 0.11 0.07 0.05 0.03 0.02 0.03 0.04 0.06 0.09 0.12 0.13 0.14 0.17 0.19 0.18 0.15 0.14 0.13 0.14 0.15 0.14 0.13 0.12 0.10 0.09
0.11 0.10 0.06 0.06 0.05 0.11 0.13 0.07 0.07 0.08 0.05 0.05 0.03 0.03 0.03 0.07 0.12 0.15 0.13 0.09 0.06 0.04 0.02 0.02 0.02 0.02 0.03 0.07 0.15 0.20 0.23 0.24 0.21 0.18 0.16 0.15 0.16 0.16 0.17 0.14 0.11 0.09 0.10 0.10
0.06 0.08 0.13 0.08 0.03 0.09 0.11 0.06 0.05 0.04 0.02 0.04 0.05 0.03 0.05 0.12 0.18 0.20 0.14 0.07 0.04 0.02 0.01 0.01 0.01 0.01 0.04 0.11 0.24 0.37 0.43 0.38 0.31 0.27 0.22 0.20 0.20 0.20 0.20 0.19 0.18 0.17 0.17 0.18
0.04 0.08 0.17 0.11 0.07 0.17 0.11 0.05 0.03 0.01 0.02 0.04 0.04 0.04 0.07 0.10 0.14 0.14 0.08 0.03 0.02 0.01 0.01 0.01 0.01 0.03 0.06 0.14 0.27 0.37 0.44 0.48 0.43 0.39 0.37 0.33 0.34 0.36 0.38 0.40 0.39 0.37 0.37 0.36
0.03 0.10 0.20 0.15 0.11 0.06 0.03 0.02 0.02 0.02 0.02 0.03 0.04 0.02 0.03 0.04 0.08 0.09 0.05 0.03 0.02 0.01 0.01 0.01 0.01 0.03 0.07 0.14 0.22 0.32 0.41 0.47 0.51 0.57 0.61 0.60 0.59 0.62 0.66 0.71 0.72 0.68 0.65 0.63
0.03 0.08 0.21 0.17 0.12 0.03 0.01 0.00 0.01 0.02 0.04 0.01 0.02 0.02 0.01 0.02 0.06 0.08 0.07 0.05 0.04 0.03 0.03 0.03 0.03 0.05 0.10 0.17 0.28 0.45 0.56 0.62 0.64 0.71 0.76 0.73 0.72 0.73 0.73 0.74 0.74 0.70 0.64 0.61
0.07 0.12 0.18 0.16 0.12 0.02 0.01 0.01 0.00 0.03 0.04 0.01 0.02 0.02 0.03 0.04 0.05 0.04 0.06 0.08 0.09 0.09 0.10 0.12 0.14 0.18 0.25 0.34 0.48 0.70 0.82 0.77 0.71 0.70 0.66 0.60 0.56 0.51 0.48 0.46 0.43 0.41 0.37 0.34
0.02 0.05 0.06 0.06 0.07 0.03 0.01 0.01 0.01 0.02 0.01 0.01 0.02 0.03 0.04 0.03 0.03 0.03 0.04 0.06 0.11 0.14 0.15 0.18 0.24 0.30 0.36 0.40 0.46 0.56 0.59 0.54 0.48 0.43 0.36 0.30 0.28 0.25 0.23 0.21 0.20 0.18 0.16 0.14
0.02 0.03 0.03 0.03 0.04 0.02 0.01 0.01 0.01 0.01 0.01 0.01 0.03 0.04 0.04 0.03 0.02 0.03 0.03 0.04 0.05 0.08 0.08 0.09 0.11 0.12 0.15 0.17 0.19 0.20 0.19 0.16 0.14 0.12 0.10 0.08 0.08 0.08 0.07 0.07 0.06 0.05 0.04 0.03
0.03 0.02 0.03 0.02 0.02 0.02 0.01 0.01 0.01 0.01 0.01 0.01 0.03 0.03 0.03 0.04 0.03 0.03 0.03 0.03 0.04 0.04 0.04 0.04 0.04 0.04 0.04 0.04 0.05 0.04 0.04 0.04 0.03 0.03 0.03 0.03 0.03 0.03 0.04 0.04 0.04 0.04 0.04 0.04
0.03 0.03 0.04 0.03 0.02 0.02 0.01 0.01 0.01 0.01 0.01 0.01 0.01 0.01 0.02 0.02 0.03 0.04 0.04 0.04 0.04 0.04 0.04 0.04 0.04 0.04 0.04 0.04 0.04 0.04 0.04 0.04 0.04 0.04 0.05 0.05 0.05 0.05 0.05 0.06 0.07 0.08 0.07 0.08
0.02 0.03 0.04 0.04 0.01 0.01 0.00 0.00 0.00 0.01 0.01 0.01 0.01 0.01 0.02 0.02 0.02 0.03 0.03 0.03 0.03 0.04 0.04 0.05 0.05 0.05 0.05 0.05 0.06 0.06 0.06 0.07 0.07 0.07 0.07 0.09 0.09 0.10 0.10 0.11 0.11 0.13 0.13 0.14

GEFSCGP_prec_meanprecacc_096.txt.gz
Total_Precipitation_Accumulation
1.74 1.33 0.83 0.45 0.36 0.33 0.27 0.35 0.49 0.54 0.54 0.55 0.59 0.46 0.43 0.36 0.32 0.34 0.34 0.36 0.44 0.56 0.70 0.83 0.96 1.11 1.23 1.21 1.24 1.35 1.40 1.48 1.55 1.55 1.44 1.31 1.19 1.11 1.03 0.89 0.81 0.71 0.62 0.59
1.49 0.95 0.43 0.30 0.32 0.31 0.29 0.32 0.41 0.47 0.47 0.55 0.55 0.47 0.41 0.42 0.37 0.33 0.32 0.33 0.42 0.54 0.63 0.75 0.88 1.00 1.15 1.23 1.24 1.36 1.43 1.47 1.48 1.50 1.56 1.50 1.51 1.41 1.31 1.20 1.10 0.97 0.87 0.81
1.15 0.64 0.37 0.39 0.41 0.34 0.28 0.28 0.34 0.40 0.45 0.54 0.55 0.54 0.42 0.39 0.38 0.32 0.29 0.31 0.38 0.53 0.60 0.68 0.80 0.84 0.93 1.10 1.28 1.35 1.41 1.46 1.49 1.68 2.01 1.95 1.82 1.69 1.55 1.41 1.30 1.20 1.13 1.08
1.04 0.59 0.44 0.45 0.39 0.33 0.30 0.21 0.28 0.35 0.49 0.56 0.57 0.72 0.46 0.43 0.43 0.34 0.30 0.30 0.37 0.46 0.51 0.59 0.74 0.79 0.81 0.91 1.14 1.40 1.48 1.57 1.69 1.87 2.04 2.06 1.81 1.59 1.47 1.46 1.44 1.41 1.29 1.23
0.99 0.67 0.54 0.50 0.37 0.33 0.31 0.23 0.29 0.35 0.44 0.51 0.44 0.56 0.51 0.44 0.44 0.42 0.38 0.39 0.43 0.47 0.51 0.57 0.72 0.80 0.79 0.82 0.96 1.22 1.44 1.51 1.70 1.85 1.92 2.02 1.84 1.56 1.49 1.49 1.43 1.40 1.31 1.20
0.69 0.57 0.60 0.51 0.36 0.35 0.35 0.32 0.37 0.44 0.50 0.51 0.36 0.43 0.50 0.45 0.45 0.47 0.48 0.52 0.55 0.52 0.54 0.57 0.65 0.68 0.69 0.73 0.81 0.94 1.12 1.20 1.34 1.51 1.69 1.82 1.82 1.69 1.55 1.44 1.37 1.31 1.27 1.19
0.84 0.67 0.54 0.47 0.45 0.40 0.39 0.50 0.66 0.75 0.65 0.44 0.28 0.32 0.45 0.41 0.41 0.45 0.51 0.55 0.54 0.51 0.47 0.52 0.55 0.54 0.56 0.60 0.67 0.78 0.86 0.94 1.04 1.17 1.35 1.51 1.63 1.63 1.55 1.47 1.35 1.24 1.17 1.10
0.81 0.91 0.54 0.43 0.42 0.40 0.34 0.40 0.51 0.50 0.33 0.25 0.18 0.27 0.40 0.41 0.43 0.44 0.48 0.46 0.46 0.44 0.45 0.53 0.58 0.55 0.55 0.54 0.55 0.59 0.68 0.80 0.86 0.95 1.09 1.21 1.26 1.27 1.24 1.25 1.23 1.18 1.10 1.05
0.43 0.56 0.37 0.27 0.22 0.25 0.31 0.27 0.22 0.38 0.27 0.19 0.20 0.24 0.34 0.39 0.41 0.41 0.43 0.39 0.36 0.34 0.40 0.49 0.52 0.48 0.45 0.44 0.43 0.46 0.53 0.62 0.67 0.73 0.84 0.89 0.94 0.96 0.98 0.99 0.98 0.98 1.00 1.02
0.21 0.35 0.30 0.22 0.21 0.18 0.18 0.15 0.21 0.42 0.36 0.23 0.17 0.19 0.35 0.37 0.37 0.36 0.35 0.32 0.29 0.31 0.35 0.37 0.37 0.34 0.33 0.36 0.37 0.37 0.42 0.47 0.50 0.52 0.58 0.60 0.64 0.71 0.77 0.83 0.79 0.75 0.78 0.83
0.12 0.21 0.25 0.21 0.22 0.16 0.12 0.14 0.20 0.28 0.25 0.20 0.13 0.19 0.24 0.29 0.30 0.28 0.27 0.28 0.27 0.28 0.26 0.26 0.25 0.24 0.26 0.27 0.26 0.26 0.31 0.38 0.40 0.38 0.39 0.41 0.43 0.48 0.55 0.65 0.69 0.69 0.69 0.64
0.09 0.15 0.20 0.16 0.09 0.05 0.06 0.10 0.17 0.28 0.20 0.15 0.12 0.17 0.18 0.20 0.21 0.20 0.21 0.22 0.22 0.21 0.20 0.21 0.20 0.21 0.21 0.21 0.21 0.23 0.27 0.29 0.29 0.27 0.27 0.28 0.28 0.31 0.36 0.44 0.50 0.54 0.59 0.61
0.08 0.12 0.20 0.21 0.14 0.09 0.09 0.10 0.12 0.25 0.39 0.25 0.17 0.18 0.19 0.18 0.17 0.16 0.17 0.18 0.18 0.16 0.15 0.14 0.14 0.13 0.13 0.16 0.19 0.22 0.20 0.17 0.16 0.17 0.16 0.16 0.18 0.19 0.22 0.26 0.30 0.34 0.39 0.46
0.13 0.09 0.11 0.13 0.09 0.15 0.18 0.09 0.13 0.44 0.54 0.17 0.07 0.12 0.13 0.13 0.14 0.17 0.19 0.17 0.15 0.13 0.11 0.08 0.06 0.06 0.07 0.12 0.15 0.16 0.13 0.13 0.15 0.16 0.16 0.16 0.15 0.16 0.16 0.16 0.19 0.21 0.23 0.26
0.11 0.09 0.05 0.05 0.07 0.19 0.20 0.12 0.15 0.29 0.20 0.15 0.06 0.06 0.07 0.08 0.11 0.14 0.16 0.12 0.09 0.07 0.05 0.03 0.04 0.04 0.06 0.09 0.12 0.13 0.15 0.17 0.19 0.18 0.16 0.14 0.14 0.15 0.16 0.15 0.14 0.13 0.12 0.12
0.11 0.10 0.07 0.06 0.06 0.11 0.14 0.08 0.07 0.08 0.06 0.05 0.04 0.04 0.04 0.07 0.12 0.15 0.14 0.10 0.07 0.05 0.03 0.02 0.02 0.02 0.03 0.07 0.15 0.20 0.23 0.24 0.21 0.18 0.16 0.15 0.16 0.17 0.17 0.14 0.11 0.10 0.10 0.11
0.06 0.08 0.13 0.08 0.03 0.10 0.11 0.07 0.06 0.04 0.02 0.04 0.05 0.04 0.06 0.13 0.19 0.20 0.14 0.08 0.05 0.03 0.02 0.01 0.01 0.01 0.04 0.11 0.24 0.37 0.43 0.38 0.31 0.27 0.22 0.20 0.20 0.20 0.20 0.19 0.18 0.17 0.17 0.18
0.04 0.08 0.17 0.11 0.07 0.17 0.11 0.05 0.03 0.01 0.02 0.04 0.04 0.04 0.07 0.10 0.14 0.15 0.08 0.04 0.02 0.02 0.01 0.01 0.01 0.03 0.06 0.14 0.27 0.37 0.44 0.48 0.43 0.39 0.37 0.33 0.34 0.36 0.38 0.40 0.39 0.37 0.37 0.36
0.03 0.10 0.20 0.15 0.11 0.06 0.03 0.02 0.02 0.02 0.02 0.03 0.04 0.02 0.03 0.04 0.08 0.09 0.06 0.03 0.02 0.01 0.01 0.01 0.01 0.03 0.07 0.14 0.22 0.32 0.41 0.47 0.51 0.57 0.61 0.60 0.59 0.62 0.66 0.71 0.72 0.68 0.65 0.63
0.03 0.08 0.21 0.17 0.12 0.03 0.01 0.00 0.01 0.02 0.04 0.01 0.02 0.02 0.01 0.02 0.07 0.08 0.07 0.05 0.04 0.03 0.03 0.03 0.03 0.05 0.10 0.17 0.28 0.45 0.56 0.62 0.64 0.71 0.76 0.73 0.72 0.73 0.73 0.74 0.74 0.70 0.64 0.61
0.07 0.12 0.18 0.16 0.12 0.02 0.01 0.01 0.00 0.03 0.04 0.01 0.02 0.02 0.03 0.04 0.05 0.04 0.06 0.08 0.09 0.09 0.10 0.12 0.14 0.18 0.25 0.34 0.48 0.70 0.82 0.77 0.71 0.70 0.66 0.60 0.56 0.51 0.48 0.46 0.43 0.41 0.37 0.34
0.02 0.05 0.06 0.06 0.07 0.03 0.01 0.01 0.01 0.02 0.01 0.01 0.02 0.03 0.04 0.03 0.03 0.03 0.04 0.06 0.11 0.14 0.15 0.18 0.24 0.30 0.36 0.40 0.46 0.56 0.59 0.54 0.48 0.43 0.36 0.30 0.28 0.25 0.23 0.21 0.20 0.18 0.16 0.14
0.02 0.03 0.03 0.03 0.04 0.02 0.01 0.01 0.01 0.01 0.01 0.01 0.03 0.04 0.04 0.03 0.02 0.03 0.03 0.04 0.05 0.08 0.08 0.09 0.11 0.12 0.15 0.17 0.19 0.20 0.19 0.16 0.14 0.12 0.10 0.08 0.08 0.08 0.07 0.07 0.06 0.05 0.04 0.03
0.03 0.02 0.03 0.02 0.02 0.02 0.01 0.01 0.01 0.01 0.01 0.01 0.03 0.03 0.03 0.04 0.03 0.03 0.03 0.03 0.04 0.04 0.04 0.04 0.04 0.04 0.04 0.04 0.05 0.04 0.04 0.04 0.03 0.03 0.03 0.03 0.03 0.03 0.04 0.04 0.04 0.04 0.04 0.04
0.03 0.03 0.04 0.03 0.02 0.02 0.01 0.01 0.01 0.01 0.01 0.01 0.01 0.01 0.02 0.02 0.03 0.04 0.04 0.04 0.04 0.04 0.04 0.04 0.04 0.04 0.04 0.04 0.04 0.04 0.04 0.04 0.04 0.04 0.05 0.05 0.05 0.05 0.05 0.06 0.07 0.08 0.07 0.08
0.02 0.03 0.04 0.04 0.01 0.01 0.00 0.00 0.00 0.01 0.01 0.01 0.01 0.01 0.02 0.02 0.02 0.03 0.03 0.03 0.03 0.04 0.04 0.05 0.05 0.05 0.05 0.05 0.06 0.06 0.06 0.07 0.07 0.07 0.07 0.09 0.10 0.10 0.10 0.11 0.11 0.13 0.13 0.14

GEFSCGP_prec_meanprecacc_102.txt.gz
Total_Precipitation_Accumulation
1.78 1.35 0.83 0.45 0.36 0.33 0.27 0.35 0.49 0.54 0.54 0.56 0.59 0.46 0.43 0.37 0.33 0.34 0.34 0.37 0.44 0.57 0.70 0.83 0.96 1.12 1.24 1.22 1.26 1.37 1.42 1.51 1.58 1.57 1.47 1.34 1.22 1.16 1.08 0.93 0.86 0.76 0.69 0.68
1.52 0.97 0.44 0.30 0.32 0.31 0.29 0.32 0.42 0.47 0.48 0.55 0.55 0.47 0.42 0.42 0.38 0.34 0.33 0.34 0.43 0.55 0.65 0.76 0.90 1.01 1.16 1.24 1.27 1.40 1.46 1.50 1.51 1.54 1.59 1.53 1.54 1.45 1.35 1.25 1.14 1.02 0.93 0.89
1.16 0.65 0.37 0.39 0.42 0.35 0.28 0.29 0.34 0.40 0.45 0.54 0.56 0.54 0.42 0.39 0.39 0.32 0.30 0.33 0.41 0.57 0.64 0.72 0.84 0.87 0.96 1.14 1.34 1.41 1.46 1.50 1.53 1.72 2.05 1.99 1.87 1.74 1.61 1.47 1.36 1.25 1.18 1.15
1.05 0.59 0.45 0.45 0.39 0.34 0.30 0.21 0.28 0.36 0.50 0.57 0.58 0.73 0.47 0.45 0.44 0.36 0.32 0.33 0.42 0.52 0.56 0.63 0.80 0.85 0.87 0.98 1.23 1.50 1.57 1.64 1.75 1.92 2.11 2.12 1.87 1.65 1.54 1.52 1.52 1.48 1.35 1.30
1.00 0.68 0.55 0.51 0.38 0.33 0.32 0.23 0.29 0.36 0.45 0.53 0.45 0.58 0.53 0.46 0.47 0.45 0.42 0.43 0.49 0.54 0.57 0.62 0.79 0.88 0.87 0.92 1.08 1.34 1.56 1.62 1.79 1.93 2.01 2.12 1.91 1.64 1.60 1.58 1.52 1.49 1.40 1.28
0.70 0.59 0.62 0.52 0.36 0.35 0.35 0.33 0.38 0.45 0.52 0.54 0.38 0.47 0.54 0.49 0.50 0.52 0.53 0.58 0.62 0.60 0.63 0.66 0.76 0.79 0.79 0.82 0.92 1.08 1.27 1.34 1.46 1.62 1.79 1.93 1.94 1.80 1.66 1.55 1.48 1.43 1.38 1.30
0.85 0.68 0.56 0.49 0.46 0.41 0.41 0.52 0.68 0.77 0.67 0.46 0.31 0.36 0.50 0.46 0.46 0.51 0.58 0.63 0.63 0.61 0.59 0.63 0.66 0.66 0.65 0.69 0.79 0.90 0.99 1.06 1.17 1.31 1.49 1.66 1.78 1.77 1.68 1.60 1.48 1.37 1.28 1.21
0.83 0.93 0.55 0.44 0.43 0.41 0.35 0.41 0.53 0.52 0.34 0.27 0.21 0.31 0.46 0.47 0.50 0.50 0.56 0.55 0.54 0.53 0.56 0.64 0.71 0.68 0.65 0.66 0.67 0.70 0.78 0.90 0.98 1.07 1.23 1.35 1.41 1.44 1.40 1.38 1.36 1.30 1.23 1.19
0.45 0.58 0.38 0.28 0.24 0.26 0.33 0.29 0.24 0.40 0.28 0.21 0.22 0.28 0.40 0.45 0.47 0.48 0.51 0.46 0.43 0.42 0.50 0.60 0.63 0.61 0.58 0.57 0.56 0.58 0.64 0.73 0.78 0.83 0.93 0.97 1.03 1.07 1.11 1.12 1.12 1.12 1.14 1.19
0.23 0.36 0.31 0.23 0.22 0.20 0.19 0.16 0.23 0.45 0.39 0.24 0.18 0.21 0.40 0.44 0.44 0.43 0.42 0.39 0.36 0.39 0.45 0.47 0.46 0.43 0.44 0.47 0.50 0.49 0.51 0.57 0.58 0.60 0.65 0.67 0.70 0.76 0.84 0.91 0.89 0.86 0.90 0.96
0.13 0.23 0.27 0.22 0.25 0.18 0.13 0.16 0.22 0.30 0.27 0.21 0.14 0.22 0.29 0.34 0.36 0.35 0.34 0.34 0.33 0.36 0.35 0.34 0.32 0.32 0.34 0.37 0.37 0.35 0.38 0.46 0.47 0.43 0.43 0.46 0.49 0.54 0.62 0.73 0.79 0.80 0.80 0.77
0.10 0.16 0.21 0.17 0.09 0.06 0.07 0.10 0.18 0.30 0.21 0.17 0.13 0.20 0.22 0.24 0.26 0.25 0.25 0.27 0.27 0.28 0.28 0.29 0.27 0.27 0.27 0.28 0.28 0.30 0.34 0.36 0.36 0.33 0.33 0.35 0.36 0.38 0.43 0.52 0.60 0.64 0.69 0.71
0.09 0.13 0.21 0.21 0.15 0.10 0.10 0.10 0.13 0.26 0.41 0.26 0.18 0.21 0.22 0.21 0.21 0.20 0.21 0.23 0.23 0.21 0.19 0.18 0.17 0.17 0.17 0.20 0.24 0.26 0.26 0.24 0.23 0.24 0.24 0.26 0.27 0.27 0.29 0.33 0.38 0.42 0.47 0.55
0.14 0.09 0.11 0.14 0.11 0.16 0.19 0.10 0.14 0.45 0.55 0.18 0.08 0.14 0.16 0.15 0.16 0.19 0.22 0.20 0.18 0.16 0.13 0.10 0.08 0.07 0.08 0.13 0.17 0.18 0.16 0.15 0.18 0.19 0.19 0.20 0.20 0.20 0.21 0.21 0.24 0.26 0.28 0.32
0.12 0.10 0.06 0.05 0.08 0.20 0.21 0.13 0.16 0.29 0.20 0.15 0.07 0.07 0.09 0.10 0.12 0.16 0.17 0.14 0.10 0.08 0.06 0.04 0.04 0.05 0.06 0.09 0.12 0.14 0.15 0.17 0.20 0.18 0.16 0.15 0.15 0.16 0.17 0.16 0.15 0.14 0.13 0.14
0.11 0.11 0.07 0.07 0.06 0.12 0.15 0.09 0.08 0.08 0.06 0.05 0.04 0.05 0.05 0.08 0.13 0.16 0.14 0.10 0.08 0.06 0.04 0.03 0.02 0.03 0.03 0.07 0.15 0.20 0.23 0.24 0.21 0.18 0.16 0.15 0.16 0.17 0.17 0.15 0.11 0.10 0.10 0.11
0.06 0.08 0.14 0.08 0.03 0.10 0.12 0.07 0.06 0.04 0.02 0.04 0.05 0.04 0.06 0.13 0.19 0.21 0.15 0.08 0.05 0.03 0.03 0.02 0.01 0.01 0.04 0.11 0.24 0.37 0.43 0.38 0.31 0.27 0.22 0.20 0.20 0.20 0.20 0.19 0.19 0.18 0.17 0.18
0.04 0.08 0.17 0.11 0.07 0.17 0.12 0.06 0.03 0.02 0.02 0.04 0.04 0.04 0.07 0.10 0.15 0.15 0.09 0.04 0.02 0.02 0.01 0.01 0.01 0.03 0.06 0.14 0.27 0.37 0.44 0.48 0.43 0.39 0.37 0.33 0.34 0.36 0.38 0.40 0.39 0.37 0.37 0.36
0.03 0.10 0.20 0.15 0.11 0.07 0.03 0.02 0.03 0.02 0.02 0.03 0.04 0.02 0.03 0.04 0.09 0.09 0.06 0.03 0.02 0.01 0.01 0.01 0.01 0.03 0.07 0.14 0.22 0.32 0.41 0.47 0.51 0.57 0.61 0.60 0.59 0.62 0.66 0.71 0.72 0.68 0.65 0.63
0.03 0.08 0.21 0.17 0.12 0.03 0.01 0.01 0.01 0.02 0.04 0.01 0.02 0.02 0.01 0.02 0.07 0.08 0.07 0.05 0.04 0.03 0.03 0.03 0.03 0.05 0.10 0.17 0.28 0.45 0.56 0.62 0.64 0.71 0.76 0.73 0.72 0.73 0.73 0.74 0.74 0.70 0.64 0.61
0.07 0.12 0.18 0.16 0.12 0.02 0.01 0.01 0.01 0.03 0.04 0.01 0.02 0.02 0.03 0.04 0.05 0.04 0.06 0.08 0.09 0.09 0.10 0.12 0.14 0.18 0.25 0.34 0.48 0.70 0.82 0.77 0.71 0.70 0.66 0.60 0.56 0.51 0.48 0.46 0.43 0.41 0.37 0.34
0.02 0.05 0.06 0.06 0.07 0.03 0.01 0.01 0.01 0.02 0.01 0.01 0.02 0.03 0.04 0.03 0.03 0.03 0.04 0.06 0.11 0.14 0.15 0.18 0.24 0.30 0.36 0.40 0.46 0.56 0.59 0.54 0.48 0.43 0.36 0.30 0.28 0.25 0.23 0.21 0.20 0.18 0.16 0.14
0.02 0.03 0.03 0.03 0.04 0.02 0.01 0.01 0.01 0.01 0.01 0.01 0.03 0.04 0.04 0.03 0.02 0.03 0.03 0.04 0.05 0.08 0.08 0.09 0.11 0.12 0.15 0.17 0.19 0.20 0.19 0.16 0.14 0.12 0.10 0.08 0.08 0.08 0.07 0.07 0.06 0.05 0.04 0.03
0.03 0.02 0.03 0.02 0.02 0.02 0.01 0.01 0.01 0.01 0.01 0.01 0.03 0.03 0.03 0.04 0.03 0.03 0.03 0.03 0.04 0.04 0.04 0.04 0.04 0.04 0.04 0.04 0.05 0.04 0.04 0.04 0.03 0.03 0.03 0.03 0.03 0.03 0.04 0.04 0.04 0.04 0.04 0.04
0.04 0.03 0.04 0.03 0.02 0.02 0.01 0.01 0.01 0.01 0.01 0.01 0.01 0.01 0.02 0.02 0.03 0.04 0.04 0.04 0.04 0.04 0.04 0.04 0.04 0.04 0.04 0.04 0.04 0.04 0.04 0.04 0.04 0.04 0.05 0.05 0.05 0.05 0.05 0.06 0.07 0.08 0.07 0.08
0.02 0.03 0.04 0.04 0.01 0.01 0.00 0.00 0.00 0.01 0.01 0.01 0.01 0.01 0.02 0.02 0.02 0.03 0.03 0.03 0.03 0.04 0.04 0.05 0.05 0.05 0.05 0.05 0.06 0.06 0.06 0.07 0.07 0.07 0.07 0.09 0.10 0.10 0.10 0.11 0.11 0.13 0.13 0.14

GEFSCGP_prec_meanprecacc_108.txt.gz
Total_Precipitation_Accumulation
1.83 1.38 0.86 0.47 0.37 0.34 0.28 0.35 0.49 0.55 0.54 0.56 0.59 0.46 0.43 0.37 0.33 0.34 0.34 0.37 0.45 0.57 0.71 0.83 0.97 1.12 1.24 1.22 1.26 1.37 1.43 1.52 1.62 1.62 1.49 1.37 1.26 1.20 1.13 0.99 0.93 0.83 0.77 0.78
1.56 1.01 0.45 0.31 0.33 0.31 0.29 0.32 0.42 0.47 0.48 0.55 0.55 0.47 0.42 0.42 0.38 0.34 0.33 0.34 0.44 0.56 0.65 0.77 0.90 1.02 1.17 1.25 1.29 1.42 1.49 1.51 1.54 1.58 1.63 1.58 1.59 1.50 1.40 1.29 1.20 1.08 1.02 1.00
1.20 0.67 0.38 0.40 0.43 0.36 0.28 0.29 0.35 0.40 0.45 0.54 0.56 0.55 0.42 0.40 0.39 0.33 0.30 0.34 0.41 0.58 0.65 0.73 0.85 0.89 0.98 1.16 1.36 1.44 1.49 1.53 1.55 1.75 2.10 2.05 1.93 1.79 1.65 1.52 1.41 1.30 1.25 1.23
1.08 0.60 0.46 0.46 0.40 0.34 0.31 0.22 0.28 0.36 0.50 0.57 0.58 0.74 0.48 0.45 0.45 0.36 0.33 0.34 0.43 0.53 0.57 0.64 0.81 0.85 0.88 1.00 1.25 1.53 1.60 1.67 1.78 1.96 2.17 2.20 1.94 1.72 1.59 1.57 1.57 1.53 1.41 1.37
1.02 0.69 0.56 0.52 0.39 0.34 0.32 0.23 0.29 0.36 0.46 0.54 0.46 0.59 0.54 0.46 0.48 0.47 0.43 0.44 0.50 0.55 0.58 0.63 0.80 0.89 0.88 0.94 1.11 1.37 1.59 1.66 1.83 1.97 2.07 2.20 1.99 1.72 1.68 1.66 1.58 1.56 1.47 1.37
0.71 0.60 0.64 0.54 0.37 0.36 0.36 0.34 0.39 0.46 0.54 0.56 0.40 0.49 0.56 0.52 0.52 0.54 0.54 0.60 0.64 0.62 0.64 0.68 0.78 0.81 0.81 0.85 0.96 1.12 1.30 1.39 1.51 1.67 1.85 2.00 2.01 1.89 1.76 1.64 1.56 1.51 1.48 1.42
0.86 0.70 0.57 0.50 0.48 0.42 0.42 0.54 0.71 0.80 0.69 0.48 0.33 0.39 0.55 0.49 0.49 0.54 0.60 0.65 0.67 0.64 0.61 0.65 0.69 0.69 0.68 0.72 0.82 0.93 1.03 1.12 1.23 1.38 1.56 1.74 1.85 1.87 1.81 1.73 1.60 1.49 1.40 1.33
0.84 0.95 0.56 0.45 0.45 0.43 0.36 0.43 0.56 0.57 0.38 0.30 0.23 0.34 0.50 0.50 0.53 0.53 0.59 0.58 0.57 0.56 0.59 0.66 0.73 0.71 0.69 0.70 0.72 0.74 0.83 0.97 1.05 1.14 1.30 1.43 1.50 1.54 1.51 1.52 1.49 1.43 1.35 1.30
0.46 0.59 0.38 0.29 0.25 0.27 0.34 0.30 0.25 0.43 0.30 0.23 0.23 0.31 0.44 0.49 0.50 0.51 0.54 0.49 0.46 0.45 0.54 0.64 0.67 0.65 0.63 0.63 0.62 0.63 0.70 0.79 0.83 0.88 0.99 1.03 1.09 1.13 1.17 1.21 1.21 1.21 1.23 1.27
0.24 0.37 0.32 0.24 0.23 0.20 0.19 0.17 0.24 0.47 0.41 0.27 0.20 0.23 0.44 0.47 0.47 0.46 0.44 0.41 0.38 0.42 0.49 0.51 0.50 0.48 0.50 0.54 0.58 0.58 0.59 0.64 0.64 0.65 0.70 0.72 0.75 0.81 0.88 0.95 0.93 0.91 0.96 1.02
0.14 0.24 0.28 0.23 0.26 0.19 0.14 0.16 0.22 0.31 0.28 0.23 0.17 0.25 0.31 0.37 0.39 0.38 0.35 0.36 0.35 0.39 0.39 0.37 0.35 0.35 0.38 0.41 0.42 0.42 0.45 0.52 0.51 0.47 0.47 0.50 0.52 0.57 0.65 0.76 0.82 0.84 0.84 0.82
0.10 0.17 0.22 0.17 0.09 0.06 0.08 0.11 0.19 0.32 0.22 0.18 0.15 0.23 0.23 0.26 0.28 0.27 0.27 0.29 0.29 0.31 0.31 0.31 0.29 0.29 0.30 0.31 0.32 0.35 0.39 0.40 0.39 0.36 0.36 0.36 0.37 0.39 0.44 0.54 0.61 0.66 0.71 0.74
0.09 0.13 0.22 0.23 0.15 0.10 0.10 0.11 0.13 0.27 0.42 0.27 0.20 0.23 0.24 0.23 0.22 0.21 0.23 0.25 0.25 0.23 0.21 0.20 0.19 0.19 0.20 0.23 0.27 0.29 0.28 0.26 0.26 0.26 0.27 0.28 0.29 0.28 0.30 0.34 0.39 0.43 0.49 0.58
0.15 0.09 0.12 0.15 0.12 0.17 0.19 0.11 0.14 0.45 0.56 0.19 0.09 0.16 0.17 0.17 0.17 0.20 0.23 0.21 0.18 0.17 0.14 0.11 0.09 0.09 0.10 0.15 0.19 0.20 0.18 0.17 0.20 0.21 0.21 0.22 0.22 0.23 0.23 0.24 0.26 0.27 0.29 0.33
0.12 0.10 0.06 0.06 0.09 0.21 0.21 0.14 0.16 0.30 0.20 0.16 0.07 0.08 0.10 0.10 0.13 0.17 0.18 0.14 0.10 0.08 0.06 0.05 0.05 0.05 0.07 0.11 0.14 0.15 0.17 0.19 0.21 0.20 0.17 0.16 0.17 0.18 0.19 0.18 0.17 0.15 0.14 0.15
0.11 0.11 0.07 0.07 0.07 0.12 0.15 0.09 0.08 0.09 0.06 0.06 0.05 0.06 0.05 0.09 0.13 0.16 0.15 0.11 0.08 0.06 0.05 0.03 0.03 0.03 0.04 0.08 0.15 0.20 0.24 0.24 0.21 0.19 0.16 0.16 0.17 0.18 0.18 0.16 0.12 0.11 0.10 0.11
0.06 0.08 0.14 0.08 0.03 0.10 0.12 0.07 0.06 0.04 0.03 0.04 0.06 0.05 0.06 0.13 0.20 0.21 0.15 0.08 0.05 0.04 0.03 0.02 0.01 0.01 0.04 0.11 0.24 0.37 0.43 0.39 0.31 0.27 0.22 0.20 0.20 0.20 0.20 0.19 0.19 0.18 0.17 0.18
0.04 0.08 0.18 0.11 0.07 0.17 0.12 0.06 0.03 0.02 0.02 0.04 0.04 0.04 0.07 0.10 0.15 0.15 0.09 0.04 0.02 0.02 0.01 0.01 0.01 0.03 0.06 0.14 0.27 0.37 0.45 0.48 0.43 0.39 0.37 0.33 0.34 0.36 0.38 0.40 0.39 0.37 0.37 0.36
0.03 0.10 0.20 0.15 0.11 0.07 0.03 0.02 0.03 0.03 0.03 0.03 0.04 0.02 0.03 0.04 0.09 0.09 0.06 0.03 0.02 0.01 0.01 0.01 0.01 0.03 0.07 0.14 0.22 0.32 0.41 0.47 0.51 0.57 0.61 0.60 0.59 0.62 0.66 0.71 0.72 0.68 0.65 0.63
0.03 0.09 0.21 0.17 0.12 0.03 0.02 0.01 0.01 0.02 0.04 0.01 0.02 0.02 0.01 0.02 0.07 0.08 0.07 0.05 0.04 0.03 0.03 0.03 0.03 0.05 0.10 0.17 0.28 0.45 0.56 0.62 0.64 0.71 0.76 0.73 0.72 0.73 0.73 0.74 0.74 0.70 0.64 0.61
0.07 0.12 0.18 0.16 0.12 0.02 0.01 0.01 0.01 0.03 0.04 0.01 0.02 0.02 0.03 0.04 0.05 0.04 0.06 0.08 0.09 0.09 0.10 0.12 0.14 0.18 0.25 0.34 0.48 0.70 0.82 0.77 0.71 0.70 0.66 0.60 0.56 0.51 0.48 0.46 0.43 0.41 0.37 0.34
0.02 0.05 0.06 0.06 0.07 0.03 0.01 0.01 0.01 0.02 0.01 0.01 0.02 0.03 0.04 0.03 0.03 0.03 0.04 0.06 0.11 0.14 0.15 0.18 0.24 0.30 0.36 0.40 0.46 0.56 0.59 0.54 0.48 0.43 0.36 0.30 0.28 0.25 0.23 0.21 0.20 0.18 0.16 0.14
0.02 0.03 0.03 0.03 0.04 0.02 0.01 0.01 0.01 0.01 0.01 0.01 0.03 0.04 0.04 0.03 0.02 0.03 0.03 0.04 0.05 0.08 0.08 0.09 0.11 0.12 0.15 0.17 0.19 0.20 0.19 0.16 0.14 0.12 0.10 0.08 0.08 0.08 0.07 0.07 0.06 0.05 0.04 0.03
0.03 0.02 0.03 0.02 0.02 0.02 0.01 0.01 0.01 0.01 0.01 0.01 0.03 0.03 0.03 0.04 0.03 0.03 0.03 0.03 0.04 0.04 0.04 0.04 0.04 0.04 0.04 0.04 0.05 0.04 0.04 0.04 0.03 0.03 0.03 0.03 0.03 0.03 0.04 0.04 0.04 0.04 0.04 0.04
0.04 0.03 0.04 0.03 0.02 0.02 0.01 0.01 0.01 0.01 0.01 0.01 0.01 0.01 0.02 0.02 0.03 0.04 0.04 0.04 0.04 0.04 0.04 0.04 0.04 0.04 0.04 0.04 0.04 0.04 0.04 0.04 0.04 0.04 0.05 0.05 0.05 0.05 0.05 0.06 0.07 0.08 0.07 0.08
0.02 0.03 0.04 0.04 0.01 0.01 0.00 0.00 0.00 0.01 0.01 0.01 0.01 0.01 0.02 0.02 0.02 0.03 0.03 0.03 0.03 0.04 0.04 0.05 0.05 0.05 0.05 0.05 0.06 0.06 0.06 0.07 0.07 0.07 0.07 0.09 0.10 0.10 0.10 0.11 0.11 0.13 0.13 0.14